Location: The Saddle
(36.8333°N, 80.3417°W)
Time: 23:25:58
(UTC-04:00)

Vanguard 3 - Pass Details

Date: 30 January 2022
Orbit: 508 x 3258 km, 33.3° (Epoch: 19 May)

Event Time Altitude Azimuth Distance (km) Brightness Sun altitude
Rises 14:38:04 0° 276° (W) 5,290 11.7 28.4°
Reaches altitude 10° 14:42:22 10° 273° (W) 3,819 11.1 27.9°
Maximum altitude 14:51:03 52° 200° (SSW) 1,249 9.4 26.9°
Drops below altitude 10° 14:56:08 10° 124° (SE) 2,260 9.5 26.3°
Sets 14:58:06 0° 119° (ESE) 2,993 10.0 26.0°
